| time (UTC) | temp F | wind direction | speed knots | gust knots | rain 1hr in | rain 24hr in | rain mn in | humidity % | barometer mb |
| 20260505100501 | 70 | 198 | 3.5 | 5.2 | 0.00 | 0.00 | 0.00 | 88 | 1006.0 |
| 20260505095958 | 70 | 198 | 7.8 | 11.3 | 0.00 | 0.00 | 0.00 | 88 | 1006.1 |
| 20260505095454 | 70 | 195 | 7.0 | 7.8 | 0.00 | 0.00 | 0.00 | 88 | 1006.0 |
| 20260505094950 | 70 | 193 | 8.7 | 9.6 | 0.00 | 0.00 | 0.00 | 88 | 1006.1 |
| 20260505094448 | 70 | 222 | 7.8 | 9.6 | 0.00 | 0.00 | 0.00 | 88 | 1006.3 |
| 20260505093943 | 70 | 184 | 8.7 | 12.2 | 0.00 | 0.00 | 0.00 | 88 | 1006.1 |
| 20260505093440 | 70 | 192 | 7.8 | 9.6 | 0.00 | 0.00 | 0.00 | 88 | 1006.2 |
| 20260505092937 | 70 | 211 | 6.1 | 7.0 | 0.00 | 0.00 | 0.00 | 88 | 1006.2 |
| 20260505092435 | 70 | 189 | 3.5 | 5.2 | 0.00 | 0.00 | 0.00 | 88 | 1006.3 |
| 20260505091933 | 70 | 194 | 8.7 | 9.6 | 0.00 | 0.00 | 0.00 | 87 | 1006.3 |
| 20260505091430 | 71 | 204 | 4.3 | 7.0 | 0.00 | 0.00 | 0.00 | 88 | 1006.2 |
| 20260505090928 | 70 | 178 | 5.2 | 8.7 | 0.00 | 0.00 | 0.00 | 87 | 1006.3 |
| 20260505090426 | 71 | 189 | 4.3 | 5.2 | 0.00 | 0.00 | 0.00 | 87 | 1006.1 |
| 20260505085923 | 71 | 175 | 3.5 | 5.2 | 0.00 | 0.00 | 0.00 | 87 | 1006.3 |
| 20260505085421 | 71 | 209 | 5.2 | 6.1 | 0.00 | 0.00 | 0.00 | 87 | 1006.3 |
| 20260505084919 | 71 | 197 | 6.1 | 7.8 | 0.00 | 0.00 | 0.00 | 87 | 1006.1 |
| 20260505084416 | 71 | 247 | 7.8 | 11.3 | 0.00 | 0.00 | 0.00 | 87 | 1006.3 |
| 20260505083914 | 71 | 178 | 5.2 | 7.0 | 0.00 | 0.00 | 0.00 | 86 | 1006.2 |
| 20260505083412 | 71 | 183 | 3.5 | 5.2 | 0.00 | 0.00 | 0.00 | 86 | 1006.4 |
| 20260505082908 | 71 | 203 | 5.2 | 7.0 | 0.00 | 0.00 | 0.00 | 86 | 1006.4 |
| 20260505082403 | 71 | 204 | 4.3 | 6.1 | 0.00 | 0.00 | 0.00 | 86 | 1006.7 |
| 20260505081901 | 71 | 205 | 4.3 | 5.2 | 0.00 | 0.00 | 0.00 | 86 | 1006.6 |
| 20260505081357 | 71 | 209 | 6.1 | 7.8 | 0.00 | 0.00 | 0.00 | 86 | 1006.5 |
| 20260505080854 | 71 | 215 | 7.0 | 9.6 | 0.00 | 0.00 | 0.00 | 86 | 1006.6 |
| 20260505080350 | 71 | 171 | 5.2 | 6.1 | 0.00 | 0.00 | 0.00 | 86 | 1006.7 |
| 20260505075846 | 71 | 200 | 4.3 | 6.1 | 0.00 | 0.00 | 0.00 | 86 | 1006.8 |
| 20260505075343 | 70 | 180 | 5.2 | 6.1 | 0.00 | 0.00 | 0.00 | 86 | 1006.8 |
| 20260505074840 | 70 | 178 | 4.3 | 6.1 | 0.00 | 0.00 | 0.00 | 86 | 1007.0 |
| 20260505074337 | 70 | 191 | 5.2 | 6.1 | 0.00 | 0.00 | 0.00 | 86 | 1007.0 |
| 20260505073834 | 70 | 195 | 3.5 | 6.1 | 0.00 | 0.00 | 0.00 | 86 | 1006.9 |
| 20260505073332 | 70 | 185 | 7.0 | 8.7 | 0.00 | 0.00 | 0.00 | 86 | 1006.9 |
| 20260505072829 | 70 | 197 | 5.2 | 6.1 | 0.00 | 0.00 | 0.00 | 86 | 1006.9 |
| 20260505072325 | 70 | 162 | 3.5 | 5.2 | 0.00 | 0.00 | 0.00 | 86 | 1006.9 |
| 20260505071821 | 69 | 194 | 6.1 | 7.0 | 0.00 | 0.00 | 0.00 | 86 | 1006.9 |
| 20260505071318 | 69 | 207 | 3.5 | 5.2 | 0.00 | 0.00 | 0.00 | 86 | 1007.0 |
| 20260505070816 | 69 | 161 | 5.2 | 9.6 | 0.00 | 0.00 | 0.00 | 86 | 1007.0 |
| 20260505070312 | 69 | 186 | 4.3 | 6.1 | 0.00 | 0.00 | 0.00 | 86 | 1007.1 |
| 20260505065807 | 70 | 186 | 2.6 | 2.6 | 0.00 | 0.00 | 0.00 | 85 | 1007.3 |
| 20260505065304 | 70 | 143 | 5.2 | 6.1 | 0.00 | 0.00 | 0.00 | 85 | 1007.1 |
| 20260505064802 | 70 | 198 | 5.2 | 6.1 | 0.00 | 0.00 | 0.00 | 84 | 1007.3 |
| 20260505064258 | 70 | 251 | 4.3 | 5.2 | 0.00 | 0.00 | 0.00 | 84 | 1007.5 |
| 20260505063756 | 70 | 145 | 3.5 | 5.2 | 0.00 | 0.00 | 0.00 | 84 | 1007.3 |
| 20260505063252 | 70 | 161 | 9.6 | 12.2 | 0.00 | 0.00 | 0.00 | 83 | 1007.3 |
| 20260505062749 | 70 | 197 | 7.8 | 9.6 | 0.00 | 0.00 | 0.00 | 83 | 1007.3 |
| 20260505062246 | 70 | 179 | 4.3 | 6.1 | 0.00 | 0.00 | 0.00 | 83 | 1007.5 |
| 20260505061743 | 70 | 189 | 5.2 | 6.1 | 0.00 | 0.00 | 0.00 | 83 | 1007.7 |
| 20260505061241 | 70 | 190 | 6.1 | 7.0 | 0.00 | 0.00 | 0.00 | 82 | 1007.6 |
| 20260505060738 | 70 | 200 | 8.7 | 12.2 | 0.00 | 0.00 | 0.00 | 82 | 1007.7 |
| 20260505060236 | 71 | 176 | 5.2 | 7.8 | 0.00 | 0.00 | 0.00 | 82 | 1007.7 |
| 20260505055730 | 71 | 187 | 5.2 | 7.8 | 0.00 | 0.00 | 0.00 | 82 | 1007.7 |
| 20260505055227 | 71 | 194 | 10.4 | 12.2 | 0.00 | 0.00 | 0.00 | 81 | 1007.7 |
| 20260505054725 | 71 | 191 | 7.0 | 9.6 | 0.00 | 0.00 | 0.00 | 81 | 1007.6 |
| 20260505054222 | 71 | 175 | 6.1 | 7.0 | 0.00 | 0.00 | 0.00 | 81 | 1007.8 |
| 20260505053720 | 71 | 196 | 7.0 | 9.6 | 0.00 | 0.00 | 0.00 | 81 | 1007.9 |
| 20260505053216 | 71 | 199 | 5.2 | 8.7 | 0.00 | 0.00 | 0.00 | 81 | 1007.8 |
| 20260505052714 | 70 | 181 | 2.6 | 3.5 | 0.00 | 0.00 | 0.00 | 81 | 1007.9 |
| 20260505052211 | 70 | 175 | 3.5 | 5.2 | 0.00 | 0.00 | 0.00 | 81 | 1007.9 |
| 20260505051707 | 70 | 188 | 4.3 | 6.1 | 0.00 | 0.00 | 0.00 | 81 | 1007.9 |
| 20260505051205 | 69 | 184 | 3.5 | 5.2 | 0.00 | 0.00 | 0.00 | 83 | 1008.3 |
| 20260505050703 | 69 | 192 | 3.5 | 5.2 | 0.00 | 0.00 | 0.00 | 83 | 1008.2 |
| 20260505050202 | 68 | 179 | 2.6 | 3.5 | 0.00 | 0.00 | 0.00 | 82 | 1008.0 |
| 20260505041636 | 70 | 159 | 1.7 | 2.6 | 0.00 | 0.00 | 0.00 | 79 | 1008.6 |
| 20260505041134 | 69 | 171 | 5.2 | 6.1 | 0.00 | 0.00 | 0.00 | 79 | 1008.7 |
| 20260505040630 | 69 | 151 | 2.6 | 2.6 | 0.00 | 0.00 | 0.00 | 79 | 1008.8 |
| 20260505040128 | 69 | 125 | 1.7 | 2.6 | 0.00 | 0.00 | 0.00 | 80 | 1008.9 |
| 20260505035624 | 69 | 154 | 0.9 | 1.7 | 0.00 | 0.00 | 0.00 | 79 | 1008.9 |
| 20260505035120 | 69 | 179 | 2.6 | 3.5 | 0.00 | 0.00 | 0.00 | 79 | 1009.0 |
| 20260505034617 | 69 | 160 | 1.7 | 2.6 | 0.00 | 0.00 | 0.00 | 80 | 1008.9 |
| 20260505034114 | 69 | 153 | 1.7 | 1.7 | 0.00 | 0.00 | 0.00 | 80 | 1009.0 |
| 20260505033611 | 69 | 154 | 2.6 | 2.6 | 0.00 | 0.00 | 0.00 | 79 | 1009.0 |
| 20260505033109 | 69 | 121 | 1.7 | 1.7 | 0.00 | 0.00 | 0.00 | 80 | 1009.0 |
| 20260505032607 | 69 | 135 | 1.7 | 2.6 | 0.00 | 0.00 | 0.00 | 78 | 1008.9 |
| 20260505032103 | 70 | 162 | 2.6 | 3.5 | 0.00 | 0.00 | 0.00 | 78 | 1008.9 |
| 20260505031601 | 69 | 153 | 3.5 | 5.2 | 0.00 | 0.00 | 0.00 | 78 | 1008.9 |
| 20260505031056 | 69 | 145 | 2.6 | 2.6 | 0.00 | 0.00 | 0.00 | 78 | 1009.0 |
| 20260505030554 | 70 | 156 | 2.6 | 3.5 | 0.00 | 0.00 | 0.00 | 77 | 1009.0 |
| 20260505030049 | 70 | 176 | 3.5 | 3.5 | 0.00 | 0.00 | 0.00 | 77 | 1009.1 |
| 20260505025545 | 70 | 157 | 3.5 | 5.2 | 0.00 | 0.00 | 0.00 | 77 | 1009.1 |
| 20260505025045 | 69 | 164 | 3.5 | 5.2 | 0.00 | 0.00 | 0.00 | 78 | 1008.9 |
| 20260505024541 | 69 | 169 | 3.5 | 3.5 | 0.00 | 0.00 | 0.00 | 79 | 1008.9 |
| 20260505024038 | 69 | 153 | 1.7 | 1.7 | 0.00 | 0.00 | 0.00 | 79 | 1008.7 |
| 20260505023535 | 68 | 165 | 2.6 | 3.5 | 0.00 | 0.00 | 0.00 | 79 | 1008.9 |
| 20260505023033 | 68 | 171 | 3.5 | 3.5 | 0.00 | 0.00 | 0.00 | 79 | 1008.9 |
| 20260505022530 | 68 | 164 | 1.7 | 1.7 | 0.00 | 0.00 | 0.00 | 79 | 1008.9 |
| 20260505022027 | 69 | 165 | 1.7 | 1.7 | 0.00 | 0.00 | 0.00 | 79 | 1008.9 |
| 20260505021524 | 69 | 163 | 1.7 | 2.6 | 0.00 | 0.00 | 0.00 | 79 | 1008.8 |
| 20260505021020 | 69 | 164 | 0.9 | 1.7 | 0.00 | 0.00 | 0.00 | 78 | 1008.9 |
| 20260505020514 | 69 | 157 | 2.6 | 3.5 | 0.00 | 0.00 | 0.00 | 77 | 1008.8 |
| 20260505020012 | 69 | 140 | 1.7 | 2.6 | 0.00 | 0.00 | 0.00 | 77 | 1008.9 |
| 20260505015509 | 70 | 160 | 2.6 | 2.6 | 0.00 | 0.00 | 0.00 | 75 | 1008.8 |
| 20260505015006 | 71 | 164 | 1.7 | 2.6 | 0.00 | 0.00 | 0.00 | 74 | 1008.7 |
| 20260505014503 | 71 | 166 | 3.5 | 3.5 | 0.00 | 0.00 | 0.00 | 73 | 1008.6 |
| 20260505014000 | 71 | 149 | 1.7 | 1.7 | 0.00 | 0.00 | 0.00 | 73 | 1008.6 |
| 20260505013457 | 71 | 171 | 1.7 | 1.7 | 0.00 | 0.00 | 0.00 | 73 | 1008.8 |
| 20260505012954 | 71 | 171 | 2.6 | 3.5 | 0.00 | 0.00 | 0.00 | 71 | 1008.6 |
| 20260505012452 | 71 | 157 | 2.6 | 2.6 | 0.00 | 0.00 | 0.00 | 71 | 1008.8 |
| 20260505011949 | 71 | 156 | 1.7 | 1.7 | 0.00 | 0.00 | 0.00 | 71 | 1008.6 |
| 20260505011444 | 72 | 169 | 1.7 | 2.6 | 0.00 | 0.00 | 0.00 | 71 | 1008.2 |
| 20260505010942 | 72 | 192 | 1.7 | 1.7 | 0.00 | 0.00 | 0.00 | 71 | 1008.6 |
| 20260505010437 | 72 | 179 | 2.6 | 2.6 | 0.00 | 0.00 | 0.00 | 70 | 1008.3 |
| 20260505005933 | 73 | 196 | 3.5 | 3.5 | 0.00 | 0.00 | 0.00 | 69 | 1008.6 |
| 20260505005430 | 73 | 201 | 4.3 | 5.2 | 0.00 | 0.00 | 0.00 | 68 | 1008.3 |
| 20260505004928 | 73 | 143 | 2.6 | 3.5 | 0.00 | 0.00 | 0.00 | 68 | 1008.5 |
| 20260505004424 | 73 | 168 | 3.5 | 3.5 | 0.00 | 0.00 | 0.00 | 67 | 1008.1 |
| 20260505003921 | 74 | 189 | 3.5 | 3.5 | 0.00 | 0.00 | 0.00 | 66 | 1007.9 |
| 20260505003419 | 74 | 191 | 3.5 | 3.5 | 0.00 | 0.00 | 0.00 | 66 | 1008.3 |
| 20260505002915 | 74 | 171 | 4.3 | 5.2 | 0.00 | 0.00 | 0.00 | 65 | 1008.2 |
| 20260505002411 | 75 | 180 | 4.3 | 5.2 | 0.00 | 0.00 | 0.00 | 64 | 1008.2 |
| 20260505001910 | 75 | 154 | 4.3 | 5.2 | 0.00 | 0.00 | 0.00 | 64 | 1008.6 |
| 20260505001407 | 75 | 195 | 4.3 | 6.1 | 0.00 | 0.00 | 0.00 | 63 | 1008.3 |
| 20260505000904 | 76 | 177 | 5.2 | 6.1 | 0.00 | 0.00 | 0.00 | 62 | 1008.8 |
| 20260505000402 | 76 | 185 | 7.8 | 8.7 | 0.00 | 0.00 | 0.00 | 61 | 1008.5 |
| 20260504235858 | 76 | 197 | 3.5 | 5.2 | 0.00 | 0.00 | 0.00 | 61 | 1008.6 |
| 20260504235355 | 76 | 167 | 7.0 | 7.8 | 0.00 | 0.00 | 0.00 | 60 | 1008.9 |
| 20260504234851 | 77 | 197 | 5.2 | 7.0 | 0.00 | 0.00 | 0.00 | 60 | 1008.9 |
| 20260504234349 | 77 | 206 | 9.6 | 11.3 | 0.00 | 0.00 | 0.00 | 59 | 1008.8 |
| 20260504233846 | 77 | 146 | 7.8 | 11.3 | 0.00 | 0.00 | 0.00 | 59 | 1008.9 |
| 20260504233341 | 77 | 164 | 9.6 | 13.0 | 0.00 | 0.00 | 0.00 | 59 | 1008.9 |
| 20260504232838 | 77 | 182 | 6.1 | 7.0 | 0.00 | 0.00 | 0.00 | 58 | 1009.2 |
| 20260504232336 | 77 | 195 | 7.0 | 8.7 | 0.00 | 0.00 | 0.00 | 59 | 1009.2 |
| 20260504231832 | 78 | 145 | 7.8 | 8.7 | 0.00 | 0.00 | 0.00 | 57 | 1009.2 |
| 20260504231329 | 78 | 195 | 7.8 | 8.7 | 0.00 | 0.00 | 0.00 | 56 | 1009.1 |
| 20260504230825 | 78 | 180 | 7.8 | 9.6 | 0.00 | 0.00 | 0.00 | 55 | 1009.1 |
| 20260504230323 | 78 | 169 | 6.1 | 8.7 | 0.00 | 0.00 | 0.00 | 57 | 1009.1 |
| 20260504225822 | 78 | 165 | 8.7 | 9.6 | 0.00 | 0.00 | 0.00 | 56 | 1009.2 |
| 20260504225317 | 78 | 199 | 7.8 | 13.9 | 0.00 | 0.00 | 0.00 | 55 | 1009.3 |
| 20260504224815 | 78 | 202 | 9.6 | 14.8 | 0.00 | 0.00 | 0.00 | 54 | 1009.4 |
| 20260504224312 | 78 | 206 | 8.7 | 12.2 | 0.00 | 0.00 | 0.00 | 55 | 1009.3 |
| 20260504223808 | 78 | 199 | 9.6 | 16.5 | 0.00 | 0.00 | 0.00 | 54 | 1009.4 |
| 20260504223304 | 78 | 197 | 10.4 | 12.2 | 0.00 | 0.00 | 0.00 | 55 | 1009.2 |
| 20260504222801 | 79 | 185 | 10.4 | 12.2 | 0.00 | 0.00 | 0.00 | 54 | 1009.3 |
| 20260504222258 | 78 | 180 | 7.0 | 7.8 | 0.00 | 0.00 | 0.00 | 56 | 1009.4 |
| 20260504221755 | 78 | 197 | 8.7 | 9.6 | 0.00 | 0.00 | 0.00 | 55 | 1009.5 |
| 20260504221252 | 78 | 168 | 8.7 | 9.6 | 0.00 | 0.00 | 0.00 | 54 | 1009.6 |
| 20260504220749 | 78 | 198 | 10.4 | 12.2 | 0.00 | 0.00 | 0.00 | 53 | 1009.6 |
| 20260504220246 | 78 | 174 | 8.7 | 12.2 | 0.00 | 0.00 | 0.00 | 53 | 1009.8 |
| 20260504215743 | 78 | 197 | 7.0 | 8.7 | 0.00 | 0.00 | 0.00 | 55 | 1009.8 |
| 20260504215240 | 78 | 209 | 7.8 | 11.3 | 0.00 | 0.00 | 0.00 | 54 | 1010.0 |
| 20260504214736 | 78 | 159 | 7.8 | 8.7 | 0.00 | 0.00 | 0.00 | 57 | 1010.0 |
| 20260504214232 | 78 | 200 | 7.8 | 11.3 | 0.00 | 0.00 | 0.00 | 54 | 1010.2 |
| 20260504213729 | 79 | 179 | 7.0 | 11.3 | 0.00 | 0.00 | 0.00 | 54 | 1010.0 |
| 20260504213225 | 78 | 157 | 7.0 | 8.7 | 0.00 | 0.00 | 0.00 | 56 | 1010.3 |
| 20260504212723 | 78 | 195 | 9.6 | 12.2 | 0.00 | 0.00 | 0.00 | 55 | 1010.3 |
| 20260504212219 | 78 | 204 | 10.4 | 13.0 | 0.00 | 0.00 | 0.00 | 54 | 1010.3 |
| 20260504211717 | 78 | 189 | 10.4 | 13.9 | 0.00 | 0.00 | 0.00 | 55 | 1010.5 |
| 20260504211213 | 78 | 158 | 12.2 | 13.0 | 0.00 | 0.00 | 0.00 | 54 | 1010.6 |
| 20260504210710 | 78 | 214 | 6.1 | 8.7 | 0.00 | 0.00 | 0.00 | 55 | 1010.6 |
| 20260504210207 | 78 | 175 | 9.6 | 11.3 | 0.00 | 0.00 | 0.00 | 55 | 1010.9 |
| 20260504205704 | 78 | 191 | 5.2 | 7.0 | 0.00 | 0.00 | 0.00 | 56 | 1010.7 |
| 20260504205201 | 78 | 180 | 8.7 | 12.2 | 0.00 | 0.00 | 0.00 | 55 | 1010.9 |
| 20260504204700 | 78 | 207 | 9.6 | 12.2 | 0.00 | 0.00 | 0.00 | 55 | 1011.1 |
| 20260504204159 | 77 | 200 | 6.1 | 7.8 | 0.00 | 0.00 | 0.00 | 56 | 1011.1 |
| 20260504203657 | 77 | 178 | 8.7 | 9.6 | 0.00 | 0.00 | 0.00 | 56 | 1011.3 |
| 20260504203154 | 77 | 191 | 7.8 | 8.7 | 0.00 | 0.00 | 0.00 | 55 | 1011.5 |
| 20260504202649 | 77 | 183 | 5.2 | 6.1 | 0.00 | 0.00 | 0.00 | 55 | 1011.2 |
| 20260504202146 | 78 | 195 | 9.6 | 12.2 | 0.00 | 0.00 | 0.00 | 52 | 1011.5 |
| 20260504201643 | 77 | 156 | 8.7 | 11.3 | 0.00 | 0.00 | 0.00 | 55 | 1011.7 |
| 20260504201140 | 77 | 179 | 7.8 | 11.3 | 0.00 | 0.00 | 0.00 | 56 | 1011.6 |
| 20260504200637 | 77 | 168 | 5.2 | 7.8 | 0.00 | 0.00 | 0.00 | 56 | 1011.8 |
| 20260504200134 | 77 | 184 | 9.6 | 13.0 | 0.00 | 0.00 | 0.00 | 55 | 1011.8 |
| 20260504195630 | 78 | 164 | 5.2 | 7.0 | 0.00 | 0.00 | 0.00 | 54 | 1012.1 |
| 20260504195126 | 77 | 179 | 9.6 | 13.0 | 0.00 | 0.00 | 0.00 | 53 | 1012.1 |
| 20260504194623 | 77 | 217 | 9.6 | 11.3 | 0.00 | 0.00 | 0.00 | 53 | 1012.2 |
| 20260504194119 | 77 | 208 | 6.1 | 7.8 | 0.00 | 0.00 | 0.00 | 54 | 1012.4 |
| 20260504193615 | 77 | 149 | 6.1 | 8.7 | 0.00 | 0.00 | 0.00 | 53 | 1012.6 |
| 20260504193114 | 77 | 173 | 5.2 | 7.0 | 0.00 | 0.00 | 0.00 | 55 | 1012.5 |
| 20260504192612 | 77 | 155 | 7.8 | 9.6 | 0.00 | 0.00 | 0.00 | 53 | 1012.6 |
| 20260504192110 | 76 | 107 | 7.8 | 9.6 | 0.00 | 0.00 | 0.00 | 54 | 1012.8 |
| 20260504191608 | 77 | 183 | 12.2 | 14.8 | 0.00 | 0.00 | 0.00 | 55 | 1012.8 |
| 20260504191103 | 76 | 200 | 9.6 | 11.3 | 0.00 | 0.00 | 0.00 | 53 | 1012.8 |
| 20260504190600 | 76 | 201 | 7.8 | 9.6 | 0.00 | 0.00 | 0.00 | 55 | 1012.8 |
| 20260504190056 | 76 | 179 | 7.0 | 8.7 | 0.00 | 0.00 | 0.00 | 55 | 1013.1 |
| 20260504185553 | 77 | 186 | 6.1 | 7.8 | 0.00 | 0.00 | 0.00 | 57 | 1013.1 |
| 20260504185050 | 77 | 189 | 10.4 | 12.2 | 0.00 | 0.00 | 0.00 | 53 | 1013.1 |
| 20260504184545 | 76 | 235 | 7.0 | 8.7 | 0.00 | 0.00 | 0.00 | 55 | 1013.1 |
| 20260504184040 | 76 | 165 | 9.6 | 13.0 | 0.00 | 0.00 | 0.00 | 53 | 1013.2 |
| 20260504183538 | 76 | 223 | 7.8 | 13.0 | 0.00 | 0.00 | 0.00 | 55 | 1013.1 |
| 20260504183036 | 76 | 214 | 7.8 | 9.6 | 0.00 | 0.00 | 0.00 | 52 | 1013.4 |
| 20260504182532 | 76 | 189 | 10.4 | 13.9 | 0.00 | 0.00 | 0.00 | 53 | 1013.4 |
| 20260504182030 | 75 | 200 | 11.3 | 13.0 | 0.00 | 0.00 | 0.00 | 52 | 1013.5 |
| 20260504181527 | 75 | 135 | 11.3 | 14.8 | 0.00 | 0.00 | 0.00 | 52 | 1013.6 |
| 20260504181026 | 75 | 163 | 10.4 | 13.0 | 0.00 | 0.00 | 0.00 | 52 | 1013.8 |
| 20260504180524 | 75 | 201 | 9.6 | 12.2 | 0.00 | 0.00 | 0.00 | 52 | 1013.7 |
| 20260504180022 | 75 | 150 | 7.8 | 8.7 | 0.00 | 0.00 | 0.00 | 53 | 1013.8 |
| 20260504175519 | 75 | 196 | 7.8 | 8.7 | 0.00 | 0.00 | 0.00 | 54 | 1013.9 |
| 20260504175016 | 75 | 193 | 6.1 | 7.8 | 0.00 | 0.00 | 0.00 | 54 | 1014.1 |
| 20260504174514 | 75 | 184 | 13.0 | 15.6 | 0.00 | 0.00 | 0.00 | 50 | 1014.3 |
| 20260504174011 | 75 | 188 | 10.4 | 13.0 | 0.00 | 0.00 | 0.00 | 53 | 1014.3 |
| 20260504173507 | 75 | 166 | 6.1 | 7.8 | 0.00 | 0.00 | 0.00 | 51 | 1014.4 |
| 20260504173005 | 75 | 184 | 8.7 | 13.0 | 0.00 | 0.00 | 0.00 | 52 | 1014.5 |
| 20260504172501 | 75 | 184 | 9.6 | 9.6 | 0.00 | 0.00 | 0.00 | 53 | 1014.5 |
| 20260504171957 | 75 | 192 | 6.1 | 8.7 | 0.00 | 0.00 | 0.00 | 54 | 1014.5 |
| 20260504171454 | 75 | 202 | 7.8 | 11.3 | 0.00 | 0.00 | 0.00 | 53 | 1014.5 |
| 20260504170951 | 75 | 214 | 10.4 | 14.8 | 0.00 | 0.00 | 0.00 | 51 | 1014.6 |
| 20260504170447 | 75 | 175 | 9.6 | 15.6 | 0.00 | 0.00 | 0.00 | 52 | 1014.7 |
| 20260504160407 | 73 | 203 | 6.1 | 7.8 | 0.00 | 0.00 | 0.00 | 57 | 1015.3 |
| 20260504150831 | 70 | 191 | 12.2 | 14.8 | 0.00 | 0.00 | 0.00 | 62 | 1015.5 |
| 20260504150328 | 70 | 186 | 12.2 | 14.8 | 0.00 | 0.00 | 0.00 | 62 | 1015.7 |
| 20260504141258 | 67 | 198 | 8.7 | 12.2 | 0.00 | 0.00 | 0.00 | 68 | 1015.5 |
| 20260504140754 | 67 | 188 | 12.2 | 14.8 | 0.00 | 0.00 | 0.00 | 66 | 1015.5 |
| 20260504140250 | 66 | 200 | 5.2 | 6.1 | 0.00 | 0.00 | 0.00 | 69 | 1015.6 |
| 20260504130719 | 62 | 175 | 6.1 | 7.8 | 0.00 | 0.00 | 0.00 | 79 | 1015.6 |
| 20260504130214 | 62 | 218 | 6.1 | 7.0 | 0.00 | 0.00 | 0.00 | 79 | 1015.5 |
| 20260504120139 | 58 | 185 | 2.6 | 2.6 | 0.00 | 0.00 | 0.00 | 85 | 1015.3 |
| 20260504110606 | 58 | 201 | 2.6 | 2.6 | 0.00 | 0.00 | 0.00 | 84 | 1015.3 |